Weather History for Rolla, MO

Change the Weather History Date:

Saturday, May 4, 2013

  Actual Average Record
Temperature  
Mean Temperature 41 °F 61 °F  
Max Temperature 49 °F 72 °F 91 °F (1952)
Min Temperature 33 °F 50 °F 31 °F (1954)
Degree Days  
Heating Degree Days 24 6  
Month to date heating degree days 67 24  
Since 1 July heating degree days 4857 4742  
Cooling Degree Days 0 1  
Month to date cooling degree days 4 4  
Year to date cooling degree days 17 30  
Moisture  
Dew Point 35 °F    
Average Humidity 80    
Maximum Humidity 100    
Minimum Humidity 60    
Precipitation  
Precipitation 0.02 in 0.17 in 1.81 in (1999)
Month to date precipitation 0.99 0.64  
Year to date precipitation 15.16 12.41  
Sea Level Pressure  
Sea Level Pressure 29.88 in    
Wind  
Wind Speed 4 mph (SE)    
Max Wind Speed 12 mph    
Max Gust Speed 20 mph    
Visibility 8 miles    
Events Rain    
T = Trace of Precipitation, MM = Missing Value Source: NWS Daily Summary

Daily Weather History Graph

Daily Weather History Graph

Search for Another Location

Airport:

Trip Planner

Search our weather history database for the weather conditions in past years. The results will help you decide how hot, cold, wet, or windy it might be!

Date:

Astronomy

May. 04, 2013 Rise Set
Actual Time 6:06 AM CDT 8:01 PM CDT
Civil Twilight 5:38 AM CDT 8:29 PM CDT
Nautical Twilight 5:03 AM CDT 9:04 PM CDT
Astronomical Twilight 4:26 AM CDT 9:42 PM CDT
Moon 3:00 AM CDT (5/4) 3:03 PM CDT (5/4)
Length of Visible Light 14h 51m
Length of Day
13h 54m
Waning Crescent, 27% of the Moon is Illuminated
May 4
Waning Crescent
May 9
New
May 17
First Quarter
May 24
Full
May 31
Last Quarter

Hourly Weather History & Observations

Time (CDT) Temp. Windchill Dew Point Humidity Pressure Visibility Wind Dir Wind Speed Gust Speed Precip Events Conditions
12:53 AM 34.0 °F 28.8 °F 33.1 °F 96% 29.86 in 10.0 mi WSW 5.8 mph - N/A   Overcast
1:53 AM 34.0 °F 28.8 °F 33.1 °F 96% 29.84 in 6.0 mi WSW 5.8 mph - N/A   Overcast
2:53 AM 34.0 °F 28.8 °F 33.1 °F 96% 29.83 in 8.0 mi WSW 5.8 mph - N/A   Overcast
3:53 AM 34.0 °F 31.0 °F 33.1 °F 96% 29.84 in 10.0 mi WSW 3.5 mph - N/A   Overcast
4:22 AM 33.8 °F - 32.0 °F 93% 29.82 in 10.0 mi Calm Calm - 0.00 in   Overcast
4:31 AM 33.8 °F 30.8 °F 32.0 °F 93% 29.82 in 10.0 mi South 3.5 mph - 0.00 in   Overcast
4:53 AM 34.0 °F - 33.1 °F 96% 29.84 in 10.0 mi Calm Calm - 0.00 in   Overcast
5:53 AM 34.0 °F 31.0 °F 33.1 °F 96% 29.85 in 2.5 mi South 3.5 mph - N/A   Overcast
6:05 AM 33.8 °F - 33.8 °F 100% 29.83 in 3.0 mi Calm Calm - N/A   Overcast
6:20 AM 33.8 °F - 33.8 °F 100% 29.84 in 3.0 mi Calm Calm - N/A   Overcast
6:27 AM 33.8 °F - 33.8 °F 100% 29.84 in 2.5 mi Calm Calm - N/A   Overcast
6:35 AM 33.8 °F - 33.8 °F 100% 29.84 in 4.0 mi Calm Calm - N/A   Overcast
6:46 AM 33.8 °F - 33.8 °F 100% 29.84 in 1.8 mi Calm Calm - N/A   Overcast
6:53 AM 34.0 °F - 33.1 °F 96% 29.86 in 1.2 mi Calm Calm - N/A   Overcast
7:06 AM 33.8 °F - 33.8 °F 100% 29.84 in 2.0 mi Calm Calm - N/A   Overcast
7:24 AM 35.6 °F - 33.8 °F 93% 29.85 in 3.0 mi Calm Calm - N/A   Overcast
7:53 AM 35.1 °F 30.1 °F 33.1 °F 92% 29.88 in 5.0 mi East 5.8 mph - N/A   Overcast
7:57 AM 35.6 °F 31.7 °F 33.8 °F 93% 29.86 in 2.5 mi East 4.6 mph - N/A   Overcast
8:10 AM 35.6 °F 30.7 °F 33.8 °F 93% 29.86 in 9.0 mi ENE 5.8 mph - N/A   Overcast
8:37 AM 35.6 °F 31.7 °F 33.8 °F 93% 29.86 in 5.0 mi East 4.6 mph - 0.00 in   Overcast
8:53 AM 36.0 °F 30.3 °F 34.0 °F 93% 29.89 in 6.0 mi ESE 6.9 mph - 0.00 in   Overcast
9:02 AM 37.4 °F 30.8 °F 35.6 °F 93% 29.87 in 6.0 mi ESE 9.2 mph - 0.00 in   Overcast
9:13 AM 37.4 °F 34.9 °F 35.6 °F 93% 29.87 in 7.0 mi SE 3.5 mph - 0.00 in   Overcast
9:21 AM 37.4 °F 32.1 °F 35.6 °F 93% 29.87 in 6.0 mi SSE 6.9 mph - 0.00 in   Overcast
9:26 AM 37.4 °F 33.8 °F 35.6 °F 93% 29.87 in 9.0 mi SSE 4.6 mph - 0.01 in   Overcast
9:53 AM 39.0 °F 34.0 °F 35.1 °F 86% 29.89 in 10.0 mi SSE 6.9 mph - 0.01 in   Overcast
10:39 AM 41.0 °F 35.8 °F 35.6 °F 81% 29.88 in 10.0 mi ESE 8.1 mph - 0.00 in   Scattered Clouds
10:53 AM 41.0 °F 36.4 °F 35.1 °F 79% 29.90 in 10.0 mi SSE 6.9 mph - 0.00 in   Scattered Clouds
11:24 AM 42.8 °F 39.3 °F 33.8 °F 70% 29.88 in 10.0 mi East 5.8 mph - N/A   Mostly Cloudy
11:42 AM 42.8 °F 38.0 °F 35.6 °F 76% 29.88 in 10.0 mi SE 8.1 mph - 0.00 in   Overcast
11:53 AM 43.0 °F 40.3 °F 36.0 °F 76% 29.89 in 10.0 mi SSE 4.6 mph - 0.00 in   Mostly Cloudy
12:21 PM 42.8 °F 39.3 °F 35.6 °F 76% 29.88 in 10.0 mi NNE 5.8 mph - N/A   Overcast
12:53 PM 44.1 °F 41.5 °F 35.1 °F 71% 29.90 in 10.0 mi ENE 4.6 mph - N/A   Overcast
1:53 PM 46.0 °F - 33.1 °F 61% 29.90 in 10.0 mi Calm Calm - N/A   Overcast
2:53 PM 46.9 °F - 36.0 °F 66% 29.91 in 10.0 mi ESE 6.9 mph - N/A   Overcast
3:53 PM 48.0 °F - 39.0 °F 71% 29.92 in 10.0 mi South 8.1 mph - 0.00 in   Mostly Cloudy
4:53 PM 46.9 °F - 37.9 °F 71% 29.92 in 10.0 mi SE 4.6 mph - 0.01 in   Overcast
5:53 PM 46.9 °F - 39.0 °F 74% 29.94 in 10.0 mi SW 5.8 mph - 0.00 in   Overcast
6:17 PM 46.4 °F 43.5 °F 37.4 °F 71% 29.92 in 10.0 mi South 5.8 mph - 0.00 in Rain Light Rain
6:29 PM 46.4 °F - 37.4 °F 71% 29.92 in 10.0 mi Calm Calm - 0.00 in   Overcast
6:53 PM 46.0 °F 44.8 °F 37.9 °F 73% 29.94 in 10.0 mi South 3.5 mph - 0.00 in   Overcast
7:53 PM 44.1 °F 42.5 °F 39.0 °F 82% 29.95 in 10.0 mi WSW 3.5 mph - N/A   Overcast
8:53 PM 44.1 °F - 39.0 °F 82% 29.98 in 10.0 mi Calm Calm - N/A   Overcast
9:53 PM 43.0 °F - 39.0 °F 86% 29.99 in 10.0 mi Calm Calm - N/A   Overcast
10:53 PM 44.1 °F 41.5 °F 39.9 °F 85% 29.99 in 10.0 mi NNW 4.6 mph - N/A   Overcast
11:53 PM 42.1 °F 40.2 °F 39.9 °F 92% 29.99 in 10.0 mi North 3.5 mph - N/A   Mostly Cloudy